CW6012 Weather Reports


Display with metric or nautical units.
time (UTC)temp
F
wind
direction
speed
MPH
gust
MPH
rain 1hr
in
rain 24hr
in
rain mn
in
humidity
%
barometer
mb
20260504120315 60 101 0.0 0.0 0.00 0.00 0.00 80 1004.7
20260504120153 60 101 0.0 0.0 0.00 0.00 0.00 80 1004.7
20260504110614 61 130 0.0 0.0 0.00 0.00 0.00 77 1004.4
20260504110446 61 130 0.0 0.0 0.00 0.00 0.00 77 1004.4
20260504110322 61 130 0.0 0.0 0.00 0.00 0.00 77 1004.4
20260504110210 61 130 0.0 0.0 0.00 0.00 0.00 77 1004.4
20260504100557 60 121 0.0 1.0 0.00 0.00 0.00 78 1004.9
20260504100434 60 136 0.0 1.0 0.00 0.00 0.00 77 1004.9
20260504100305 60 135 0.0 0.0 0.00 0.00 0.00 77 1004.9
20260504100133 60 135 0.0 0.0 0.00 0.00 0.00 77 1004.9
20260504081803 61 136 0.0 0.0 0.00 0.00 0.00 74 1005.4
20260504081637 61 136 0.0 0.0 0.00 0.00 0.00 74 1005.4
20260504081514 61 136 0.0 0.0 0.00 0.00 0.00 74 1005.4
20260504081326 61 136 0.0 0.0 0.00 0.00 0.00 74 1005.5
20260504081159 61 136 0.0 0.0 0.00 0.00 0.00 74 1005.5
20260504081036 61 136 0.0 0.0 0.00 0.00 0.00 74 1005.5
20260504080909 61 136 0.0 0.0 0.00 0.00 0.00 74 1005.5
20260504080722 62 136 0.0 0.0 0.00 0.00 0.00 74 1005.5
20260504080554 62 136 0.0 0.0 0.00 0.00 0.00 74 1005.5
20260504080428 62 136 0.0 0.0 0.00 0.00 0.00 74 1005.5
20260504080300 62 136 0.0 0.0 0.00 0.00 0.00 74 1005.5
20260504080148 62 136 0.0 0.0 0.00 0.00 0.00 74 1005.5
20260504070336 63 136 0.0 0.0 0.00 0.00 0.00 72 1006.6
20260504070209 62 136 0.0 0.0 0.00 0.00 0.00 72 1006.6
20260504060215 63 136 0.0 0.0 0.00 0.00 0.00 71 1007.0
20260504060148 63 136 0.0 0.0 0.00 0.00 0.00 71 1007.0
20260504050623 65 136 0.0 0.0 0.00 0.00 0.00 66 1007.5
20260504050519 65 136 0.0 0.0 0.00 0.00 0.00 66 1007.5
20260504050451 65 136 0.0 0.0 0.00 0.00 0.00 66 1007.5
20260504050343 65 136 0.0 0.0 0.00 0.00 0.00 66 1007.5
20260504050215 65 136 0.0 0.0 0.00 0.00 0.00 66 1007.5
20260504050127 65 136 0.0 0.0 0.00 0.00 0.00 66 1007.5
20260504050010 65 136 0.0 2.0 0.00 0.00 0.00 66 1007.5
20260504045847 65 136 0.0 2.0 0.00 0.00 0.00 66 1007.5
20260504045719 65 136 0.0 2.0 0.00 0.00 0.00 66 1007.5
20260504045549 65 136 0.0 2.0 0.00 0.00 0.00 65 1007.5
20260504045424 65 136 0.0 2.0 0.00 0.00 0.00 65 1007.5
20260504045233 65 136 0.0 2.0 0.00 0.00 0.00 65 1007.5
20260504045104 65 135 0.0 1.0 0.00 0.00 0.00 65 1007.5
20260504044941 65 138 0.0 1.0 0.00 0.00 0.00 65 1007.5
20260504044813 65 137 0.0 1.0 0.00 0.00 0.00 65 1007.5
20260504044645 65 130 0.0 1.0 0.00 0.00 0.00 65 1007.5
20260504044517 65 130 0.0 1.0 0.00 0.00 0.00 65 1007.5
20260504044353 65 130 0.0 1.0 0.00 0.00 0.00 65 1007.5
20260504044225 66 130 0.0 1.0 0.00 0.00 0.00 65 1007.5
20260504044058 66 130 0.0 1.0 0.00 0.00 0.00 64 1007.5
20260504043911 66 130 0.0 1.0 0.00 0.00 0.00 64 1007.5
20260504043744 66 130 0.0 1.0 0.00 0.00 0.00 64 1007.5
20260504043617 66 130 0.0 0.0 0.00 0.00 0.00 64 1007.5
20260504043452 66 130 0.0 0.0 0.00 0.00 0.00 64 1007.5
20260504043342 66 130 0.0 0.0 0.00 0.00 0.00 64 1007.5
20260504043214 66 130 0.0 1.0 0.00 0.00 0.00 63 1007.5
20260504043025 66 130 0.0 1.0 0.00 0.00 0.00 63 1007.5
20260504042901 66 130 0.0 1.0 0.00 0.00 0.00 63 1007.5
20260504042751 66 130 0.0 1.0 0.00 0.00 0.00 63 1007.5
20260504042623 66 130 0.0 1.0 0.00 0.00 0.00 63 1007.5
20260504042459 66 130 0.0 1.0 0.00 0.00 0.00 63 1007.5
20260504042311 67 140 0.0 2.0 0.00 0.00 0.00 63 1007.5
20260504042122 67 140 0.0 2.0 0.00 0.00 0.00 62 1007.5
20260504041958 67 140 0.0 2.0 0.00 0.00 0.00 62 1007.5
20260504041808 67 140 0.0 3.0 0.00 0.00 0.00 62 1007.5
20260504041641 67 140 0.0 3.0 0.00 0.00 0.00 62 1007.5
20260504041452 67 139 0.0 3.0 0.00 0.00 0.00 62 1007.5
20260504041327 67 148 0.0 3.0 0.00 0.00 0.00 61 1007.6
20260504041159 67 148 0.0 3.0 0.00 0.00 0.00 61 1007.6
20260504041031 67 149 0.0 3.0 0.00 0.00 0.00 61 1007.6
20260504040906 67 139 0.0 3.0 0.00 0.00 0.00 61 1007.6
20260504040739 67 141 0.0 3.0 0.00 0.00 0.00 61 1007.6
20260504040549 67 150 0.0 3.0 0.00 0.00 0.00 61 1007.6
20260504040424 67 150 0.0 3.0 0.00 0.00 0.00 61 1007.6
20260504040256 67 151 1.0 3.0 0.00 0.00 0.00 61 1007.6
20260504040142 67 145 0.0 2.0 0.00 0.00 0.00 61 1007.6
20260504040001 67 138 0.0 3.0 0.00 0.00 0.00 60 1007.6
20260504035833 67 138 0.0 3.0 0.00 0.00 0.00 60 1007.5
20260504035704 67 140 0.0 3.0 0.00 0.00 0.00 60 1007.5
20260504035537 68 140 0.0 3.0 0.00 0.00 0.00 60 1007.5
20260504035412 68 140 0.0 3.0 0.00 0.00 0.00 60 1007.5
20260504035243 68 140 1.0 3.0 0.00 0.00 0.00 60 1007.5
20260504035116 68 142 1.0 3.0 0.00 0.00 0.00 59 1007.5
20260504034954 68 157 1.0 4.0 0.00 0.00 0.00 59 1007.5
20260504034805 68 154 1.0 4.0 0.00 0.00 0.00 59 1007.5
20260504034638 68 146 0.0 4.0 0.00 0.00 0.00 59 1007.5
20260504034514 68 125 0.0 4.0 0.00 0.00 0.00 59 1007.5
20260504034327 68 146 0.0 4.0 0.00 0.00 0.00 59 1007.6
20260504034200 68 146 1.0 4.0 0.00 0.00 0.00 59 1007.6
20260504034034 68 136 0.0 3.0 0.00 0.00 0.00 59 1007.6
20260504033905 68 134 1.0 3.0 0.00 0.00 0.00 59 1007.6
20260504033753 68 140 0.0 2.0 0.00 0.00 0.00 59 1007.6
20260504033627 68 138 0.0 2.0 0.00 0.00 0.00 59 1007.6
20260504033504 68 154 0.0 2.0 0.00 0.00 0.00 59 1007.6
20260504033255 68 151 0.0 3.0 0.00 0.00 0.00 58 1007.6
20260504033127 68 188 0.0 3.0 0.00 0.00 0.00 59 1007.6
20260504033005 68 140 0.0 3.0 0.00 0.00 0.00 58 1007.6
20260504032839 68 165 0.0 3.0 0.00 0.00 0.00 58 1007.5
20260504032711 68 165 0.0 3.0 0.00 0.00 0.00 58 1007.5
20260504032527 69 170 1.0 3.0 0.00 0.00 0.00 57 1007.5
20260504032400 69 143 0.0 3.0 0.00 0.00 0.00 57 1007.5
20260504032234 69 138 0.0 3.0 0.00 0.00 0.00 57 1007.5
20260504032046 69 138 0.0 3.0 0.00 0.00 0.00 57 1007.5
20260504031902 69 141 0.0 3.0 0.00 0.00 0.00 57 1007.5
20260504031735 69 113 1.0 3.0 0.00 0.00 0.00 57 1007.5
20260504031606 69 148 1.0 3.0 0.00 0.00 0.00 57 1007.5
20260504031420 69 220 0.0 3.0 0.00 0.00 0.00 57 1007.4
20260504031251 69 144 0.0 3.0 0.00 0.00 0.00 56 1007.4
20260504031103 69 153 0.0 3.0 0.00 0.00 0.00 56 1007.4
20260504030939 69 133 0.0 3.0 0.00 0.00 0.00 56 1007.4
20260504030812 69 133 0.0 3.0 0.00 0.00 0.00 55 1007.4
20260504030602 69 161 0.0 3.0 0.00 0.00 0.00 55 1007.4
20260504030437 70 157 0.0 3.0 0.00 0.00 0.00 55 1007.4
20260504030311 70 175 0.0 3.0 0.00 0.00 0.00 55 1007.4
20260504030157 70 171 0.0 3.0 0.00 0.00 0.00 55 1007.4
20260504030014 70 171 1.0 3.0 0.00 0.00 0.00 55 1007.4
20260504025848 70 147 2.0 3.0 0.00 0.00 0.00 55 1007.0
20260504025700 70 143 0.0 2.0 0.00 0.00 0.00 55 1007.0
20260504025512 70 145 0.0 3.0 0.00 0.00 0.00 55 1007.0
20260504025349 70 144 0.0 4.0 0.00 0.00 0.00 54 1007.0
20260504025202 70 157 0.0 4.0 0.00 0.00 0.00 54 1007.0
20260504025034 70 162 1.0 4.0 0.00 0.00 0.00 54 1007.0
20260504024852 70 172 1.0 4.0 0.00 0.00 0.00 53 1007.0
20260504024722 70 153 0.0 4.0 0.00 0.00 0.00 53 1007.0
20260504024555 70 190 1.0 4.0 0.00 0.00 0.00 53 1007.0
20260504024433 70 147 0.0 6.0 0.00 0.00 0.00 53 1007.0
20260504024243 70 129 1.0 6.0 0.00 0.00 0.00 53 1007.0
20260504024116 70 117 1.0 6.0 0.00 0.00 0.00 53 1007.0
20260504023948 70 113 0.0 6.0 0.00 0.00 0.00 53 1007.0
20260504023743 70 164 1.0 6.0 0.00 0.00 0.00 53 1007.0
20260504023615 71 121 1.0 6.0 0.00 0.00 0.00 53 1007.0
20260504023428 71 165 1.0 4.0 0.00 0.00 0.00 53 1007.0
20260504023242 71 130 1.0 5.0 0.00 0.00 0.00 53 1007.0
20260504023116 71 156 1.0 5.0 0.00 0.00 0.00 53 1007.0
20260504022948 71 96 0.0 5.0 0.00 0.00 0.00 53 1007.0
20260504022825 71 124 0.0 6.0 0.00 0.00 0.00 53 1007.1
20260504022637 71 134 1.0 6.0 0.00 0.00 0.00 53 1007.1
20260504022509 71 153 1.0 6.0 0.00 0.00 0.00 53 1007.1
20260504022359 71 93 1.0 6.0 0.00 0.00 0.00 53 1007.1
20260504022233 71 128 1.0 6.0 0.00 0.00 0.00 53 1007.1
20260504022105 71 128 1.0 6.0 0.00 0.00 0.00 52 1007.1
20260504021939 71 132 1.0 4.0 0.00 0.00 0.00 53 1007.1
20260504021817 71 119 1.0 4.0 0.00 0.00 0.00 53 1007.1
20260504021650 71 144 1.0 4.0 0.00 0.00 0.00 53 1007.1
20260504021522 71 166 2.0 5.0 0.00 0.00 0.00 52 1007.1
20260504021400 71 153 1.0 5.0 0.00 0.00 0.00 52 1006.9
20260504021232 71 167 2.0 5.0 0.00 0.00 0.00 52 1006.9
20260504021105 71 137 0.0 5.0 0.00 0.00 0.00 52 1006.9
20260504021028 71 137 0.0 5.0 0.00 0.00 0.00 52 1006.9
20260504020905 71 95 1.0 5.0 0.00 0.00 0.00 52 1006.9
20260504020739 71 142 1.0 5.0 0.00 0.00 0.00 51 1006.9
20260504020610 71 146 2.0 5.0 0.00 0.00 0.00 52 1006.9
20260504020500 71 125 1.0 4.0 0.00 0.00 0.00 51 1006.9
20260504020316 71 155 1.0 5.0 0.00 0.00 0.00 52 1006.9
20260504020149 71 143 1.0 5.0 0.00 0.00 0.00 51 1006.9
20260504020034 72 142 1.0 5.0 0.00 0.00 0.00 51 1006.9
20260504015855 72 151 1.0 5.0 0.00 0.00 0.00 51 1006.7
20260504015705 72 131 2.0 6.0 0.00 0.00 0.00 51 1006.7
20260504015538 72 155 2.0 7.0 0.00 0.00 0.00 51 1006.7
20260504015415 72 157 2.0 7.0 0.00 0.00 0.00 51 1006.7
20260504015249 72 129 2.0 7.0 0.00 0.00 0.00 51 1006.7
20260504015122 72 169 1.0 7.0 0.00 0.00 0.00 51 1006.7
20260504014955 72 140 1.0 7.0 0.00 0.00 0.00 51 1006.7
20260504014832 72 157 2.0 7.0 0.00 0.00 0.00 50 1006.7
20260504014706 72 146 1.0 4.0 0.00 0.00 0.00 51 1006.7
20260504014539 72 158 1.0 4.0 0.00 0.00 0.00 50 1006.7
20260504014417 72 145 1.0 6.0 0.00 0.00 0.00 50 1006.5
20260504014249 72 128 1.0 6.0 0.00 0.00 0.00 50 1006.5
20260504014123 72 148 1.0 6.0 0.00 0.00 0.00 50 1006.5
20260504013959 72 174 1.0 6.0 0.00 0.00 0.00 50 1006.5
20260504013833 73 172 1.0 6.0 0.00 0.00 0.00 50 1006.5
20260504013643 73 156 1.0 6.0 0.00 0.00 0.00 50 1006.5
20260504013501 73 161 1.0 6.0 0.00 0.00 0.00 50 1006.5
20260504013334 73 160 1.0 6.0 0.00 0.00 0.00 50 1006.5
20260504013147 73 164 1.0 6.0 0.00 0.00 0.00 49 1006.5
20260504012958 73 144 1.0 6.0 0.00 0.00 0.00 49 1006.5
20260504012836 73 138 2.0 6.0 0.00 0.00 0.00 49 1006.5
20260504012708 73 158 2.0 6.0 0.00 0.00 0.00 49 1006.5
20260504012519 73 162 1.0 4.0 0.00 0.00 0.00 49 1006.5
20260504012357 73 160 1.0 4.0 0.00 0.00 0.00 49 1006.5
20260504012229 73 174 1.0 5.0 0.00 0.00 0.00 49 1006.5
20260504012101 73 142 1.0 5.0 0.00 0.00 0.00 48 1006.5
20260504011938 73 145 0.0 5.0 0.00 0.00 0.00 48 1006.5
20260504011812 73 169 1.0 5.0 0.00 0.00 0.00 48 1006.5
20260504011645 74 186 2.0 5.0 0.00 0.00 0.00 48 1006.5
20260504011522 74 178 2.0 5.0 0.00 0.00 0.00 47 1006.5
20260504011411 74 155 1.0 5.0 0.00 0.00 0.00 48 1006.5
20260504011243 74 145 0.0 5.0 0.00 0.00 0.00 48 1006.5
20260504011052 74 149 1.0 5.0 0.00 0.00 0.00 48 1006.5
20260504005938 75 126 2.0 6.0 0.00 0.00 0.00 46 1006.5
20260504005728 75 149 0.0 6.0 0.00 0.00 0.00 46 1006.5
20260504005645 75 148 0.0 6.0 0.00 0.00 0.00 46 1006.5
20260504005518 75 153 1.0 6.0 0.00 0.00 0.00 45 1006.5
20260504005329 75 150 2.0 6.0 0.00 0.00 0.00 45 1006.5
20260504005203 75 146 1.0 5.0 0.00 0.00 0.00 46 1006.5
20260504005040 75 117 0.0 4.0 0.00 0.00 0.00 46 1006.5
20260504004929 75 117 1.0 4.0 0.00 0.00 0.00 45 1006.5
20260504004738 75 148 1.0 4.0 0.00 0.00 0.00 46 1006.5
20260504004616 75 146 0.0 4.0 0.00 0.00 0.00 46 1006.5
20260504004449 75 175 1.0 4.0 0.00 0.00 0.00 46 1006.5
20260504004322 75 136 1.0 4.0 0.00 0.00 0.00 46 1006.5
20260504004137 75 146 1.0 4.0 0.00 0.00 0.00 46 1006.5
20260504003929 75 167 0.0 3.0 0.00 0.00 0.00 45 1006.5
20260504003802 75 146 1.0 4.0 0.00 0.00 0.00 45 1006.5
20260504003635 75 167 1.0 4.0 0.00 0.00 0.00 45 1006.5
20260504003511 76 155 0.0 5.0 0.00 0.00 0.00 45 1006.5
20260504003323 76 153 0.0 5.0 0.00 0.00 0.00 44 1006.5
20260504003134 76 164 1.0 5.0 0.00 0.00 0.00 43 1006.5
20260504002949 76 163 1.0 5.0 0.00 0.00 0.00 43 1006.5
20260504002822 76 150 1.0 5.0 0.00 0.00 0.00 43 1006.5
20260504002654 76 165 1.0 5.0 0.00 0.00 0.00 43 1006.5
20260504002530 76 140 1.0 3.0 0.00 0.00 0.00 42 1006.5
20260504002419 76 140 1.0 4.0 0.00 0.00 0.00 42 1006.5
20260504002229 76 152 0.0 4.0 0.00 0.00 0.00 42 1006.5
20260504002101 76 152 0.0 4.0 0.00 0.00 0.00 41 1006.5
20260504001917 76 152 0.0 4.0 0.00 0.00 0.00 41 1006.5
20260504001750 76 151 0.0 4.0 0.00 0.00 0.00 41 1006.5
20260504001623 77 166 1.0 4.0 0.00 0.00 0.00 40 1006.5
20260504001458 77 154 1.0 4.0 0.00 0.00 0.00 40 1006.5
20260504001331 77 172 1.0 4.0 0.00 0.00 0.00 40 1006.5
20260504001142 77 192 2.0 4.0 0.00 0.00 0.00 40 1006.5
20260504001018 77 177 1.0 4.0 0.00 0.00 0.00 40 1006.5
20260504000849 77 177 1.0 5.0 0.00 0.00 0.00 40 1006.5
20260504000720 77 157 0.0 5.0 0.00 0.00 0.00 39 1006.5
20260504000556 77 172 0.0 5.0 0.00 0.00 0.00 39 1006.5
20260504000446 77 114 0.0 5.0 0.00 0.00 0.00 38 1006.5
20260504000319 77 126 1.0 5.0 0.00 0.00 0.00 37 1006.5
20260504000143 77 159 1.0 5.0 0.00 0.00 0.00 36 1006.5
20260504000004 77 135 0.0 5.0 0.00 0.00 0.00 36 1006.5
20260503235836 77 140 0.0 5.0 0.00 0.00 0.00 36 1006.6
20260503235707 78 154 1.0 5.0 0.00 0.00 0.00 35 1006.6
20260503235542 78 159 1.0 5.0 0.00 0.00 0.00 34 1006.6
20260503235413 78 143 1.0 4.0 0.00 0.00 0.00 35 1006.6
20260503235246 78 151 1.0 4.0 0.00 0.00 0.00 34 1006.6
20260503235121 78 148 1.0 4.0 0.00 0.00 0.00 35 1006.6
20260503234954 78 168 0.0 4.0 0.00 0.00 0.00 35 1006.6
20260503234825 78 175 0.0 4.0 0.00 0.00 0.00 35 1006.6
20260503234658 78 142 0.0 4.0 0.00 0.00 0.00 35 1006.6
20260503234535 78 142 1.0 5.0 0.00 0.00 0.00 35 1006.6
20260503234407 78 170 1.0 5.0 0.00 0.00 0.00 35 1006.6
20260503234239 78 253 0.0 5.0 0.00 0.00 0.00 35 1006.6
20260503234054 78 167 0.0 5.0 0.00 0.00 0.00 35 1006.6
20260503233925 78 218 0.0 5.0 0.00 0.00 0.00 35 1006.6
20260503233754 78 138 1.0 5.0 0.00 0.00 0.00 35 1006.6
20260503233629 78 161 1.0 4.0 0.00 0.00 0.00 35 1006.6
20260503233502 79 132 0.0 3.0 0.00 0.00 0.00 35 1006.6
20260503233333 79 158 0.0 3.0 0.00 0.00 0.00 34 1006.6
20260503233144 79 142 0.0 3.0 0.00 0.00 0.00 34 1006.6
20260503233019 79 109 1.0 3.0 0.00 0.00 0.00 35 1006.6
20260503232852 79 131 1.0 3.0 0.00 0.00 0.00 34 1006.7
20260503232722 79 128 0.0 3.0 0.00 0.00 0.00 34 1006.7
20260503232558 79 142 0.0 3.0 0.00 0.00 0.00 35 1006.7
20260503232430 79 141 0.0 3.0 0.00 0.00 0.00 35 1006.7
20260503232305 79 141 0.0 3.0 0.00 0.00 0.00 36 1006.7
20260503232138 79 153 0.0 3.0 0.00 0.00 0.00 35 1006.7
20260503231948 79 136 0.0 3.0 0.00 0.00 0.00 35 1006.7
20260503231838 79 189 0.0 5.0 0.00 0.00 0.00 36 1006.7
20260503231710 79 94 0.0 5.0 0.00 0.00 0.00 35 1006.7
20260503231546 79 165 0.0 5.0 0.00 0.00 0.00 34 1006.7
20260503231436 79 256 0.0 5.0 0.00 0.00 0.00 34 1006.7
20260503231247 79 146 1.0 5.0 0.00 0.00 0.00 34 1006.7
20260503231123 79 150 1.0 5.0 0.00 0.00 0.00 33 1006.7
20260503230956 79 134 0.0 5.0 0.00 0.00 0.00 36 1006.7
20260503230844 79 153 0.0 3.0 0.00 0.00 0.00 35 1006.7
20260503230717 79 169 0.0 3.0 0.00 0.00 0.00 35 1006.7
20260503230553 79 170 0.0 3.0 0.00 0.00 0.00 34 1006.7
20260503230405 79 139 0.0 3.0 0.00 0.00 0.00 35 1006.7
20260503230215 80 153 0.0 3.0 0.00 0.00 0.00 34 1006.7
20260503230106 80 121 0.0 3.0 0.00 0.00 0.00 34 1006.7
20260503225923 79 207 0.0 5.0 0.00 0.00 0.00 35 1007.0
20260503225754 79 216 0.0 5.0 0.00 0.00 0.00 35 1007.0
20260503225631 79 194 0.0 5.0 0.00 0.00 0.00 35 1007.0
20260503225501 79 178 0.0 5.0 0.00 0.00 0.00 35 1007.0
20260503225333 79 164 1.0 5.0 0.00 0.00 0.00 34 1007.0
20260503225209 79 142 2.0 5.0 0.00 0.00 0.00 33 1007.0
20260503225040 79 113 0.0 4.0 0.00 0.00 0.00 36 1007.0
20260503224931 79 146 0.0 4.0 0.00 0.00 0.00 36 1007.0
20260503224821 79 159 0.0 4.0 0.00 0.00 0.00 36 1007.0
20260503224657 79 159 0.0 4.0 0.00 0.00 0.00 36 1007.0
20260503224526 79 158 1.0 4.0 0.00 0.00 0.00 35 1007.0
20260503224359 79 164 1.0 5.0 0.00 0.00 0.00 34 1007.0
20260503224210 79 133 1.0 5.0 0.00 0.00 0.00 34 1007.0
20260503224046 80 182 0.0 5.0 0.00 0.00 0.00 34 1007.0
20260503223858 80 142 0.0 5.0 0.00 0.00 0.00 34 1007.0
20260503223731 80 171 0.0 5.0 0.00 0.00 0.00 35 1007.0
20260503223606 80 163 1.0 5.0 0.00 0.00 0.00 34 1007.0
20260503223437 80 171 1.0 4.0 0.00 0.00 0.00 35 1007.0
20260503223308 80 205 1.0 3.0 0.00 0.00 0.00 35 1007.0
20260503223122 80 135 0.0 1.0 0.00 0.00 0.00 35 1007.0
20260503222954 80 135 0.0 1.0 0.00 0.00 0.00 34 1007.0
20260503222825 80 181 0.0 0.0 0.00 0.00 0.00 35 1007.3
20260503222701 80 213 0.0 0.0 0.00 0.00 0.00 36 1007.3
20260503222532 80 215 0.0 1.0 0.00 0.00 0.00 34 1007.3
20260503222420 80 161 0.0 1.0 0.00 0.00 0.00 35 1007.3
20260503222251 80 167 0.0 1.0 0.00 0.00 0.00 34 1007.3
20260503222128 80 163 0.0 3.0 0.00 0.00 0.00 34 1007.3
20260503221939 80 160 0.0 3.0 0.00 0.00 0.00 34 1007.3
20260503221812 80 160 0.0 3.0 0.00 0.00 0.00 35 1007.3
20260503221648 80 206 0.0 3.0 0.00 0.00 0.00 35 1007.3
20260503221520 80 155 0.0 3.0 0.00 0.00 0.00 35 1007.3
20260503221354 80 161 0.0 3.0 0.00 0.00 0.00 35 1007.4
20260503221208 81 171 0.0 3.0 0.00 0.00 0.00 35 1007.4
20260503221042 81 128 0.0 3.0 0.00 0.00 0.00 35 1007.4
20260503220854 81 146 0.0 3.0 0.00 0.00 0.00 34 1007.4
20260503220726 81 146 1.0 3.0 0.00 0.00 0.00 33 1007.4